Time,TemperatureF,DewpointF,PressureIn,WindDirection,WindDirectionDegrees,WindSpeedMPH,WindSpeedGustMPH,Humidity,HourlyPrecipIn,Conditions,Clouds,dailyrainin,SoftwareType,DateUTC
2013-08-08 00:00:00,73.7,64.1,29.99,NNE,22,0.0,2.0,72,0.00,,---,0.00,VWS V14.01,2013-08-08 05:00:00,
2013-08-08 00:10:00,73.4,63.8,29.98,NE,45,0.0,2.0,72,0.00,,---,0.00,VWS V14.01,2013-08-08 05:10:00,
2013-08-08 00:20:00,73.1,63.5,29.99,NNE,22,0.0,1.0,72,0.00,,---,0.00,VWS V14.01,2013-08-08 05:20:00,
2013-08-08 00:30:00,72.7,63.5,29.98,NNE,22,0.0,2.0,73,0.00,,---,0.00,VWS V14.01,2013-08-08 05:30:00,
2013-08-08 00:40:00,72.4,63.7,29.99,NNE,22,0.0,2.0,74,0.00,,---,0.00,VWS V14.01,2013-08-08 05:40:00,
2013-08-08 00:50:00,72.0,63.7,29.99,NNE,22,0.0,3.0,75,0.00,,---,0.00,VWS V14.01,2013-08-08 05:50:00,
2013-08-08 01:00:00,71.7,63.7,30.00,ESE,112,0.0,2.0,76,0.00,,---,0.00,VWS V14.01,2013-08-08 06:00:00,
2013-08-08 01:10:00,71.5,63.5,30.00,ENE,68,0.0,2.0,76,0.00,,---,0.00,VWS V14.01,2013-08-08 06:10:00,
2013-08-08 01:20:00,71.2,63.6,30.00,ENE,68,0.0,0.0,77,0.00,,---,0.00,VWS V14.01,2013-08-08 06:20:00,
2013-08-08 01:30:00,71.0,63.8,30.00,ENE,68,0.0,2.0,78,0.00,,---,0.00,VWS V14.01,2013-08-08 06:30:00,
2013-08-08 01:40:00,70.7,63.5,30.00,East,90,0.0,2.0,78,0.00,,---,0.00,VWS V14.01,2013-08-08 06:40:00,
2013-08-08 01:50:00,70.4,63.6,30.00,East,90,0.0,2.0,79,0.00,,---,0.00,VWS V14.01,2013-08-08 06:50:00,
2013-08-08 02:00:00,70.1,63.7,30.00,ESE,112,0.0,4.0,80,0.00,,---,0.00,VWS V14.01,2013-08-08 07:00:00,
2013-08-08 02:10:00,69.8,63.7,29.99,SE,135,0.0,4.0,81,0.00,,---,0.00,VWS V14.01,2013-08-08 07:10:00,
2013-08-08 02:20:00,69.5,63.4,29.99,ESE,112,0.0,4.0,81,0.00,,---,0.00,VWS V14.01,2013-08-08 07:20:00,
2013-08-08 02:30:00,69.2,63.5,29.98,SE,135,0.0,2.0,82,0.00,,---,0.00,VWS V14.01,2013-08-08 07:30:00,
2013-08-08 02:40:00,69.0,63.6,29.98,SE,135,0.0,5.0,83,0.00,,---,0.00,VWS V14.01,2013-08-08 07:40:00,
2013-08-08 02:50:00,68.7,63.3,29.98,ENE,68,0.0,3.0,83,0.00,,---,0.00,VWS V14.01,2013-08-08 07:50:00,
2013-08-08 03:00:00,68.5,63.5,29.97,ESE,112,0.0,6.0,84,0.00,,---,0.00,VWS V14.01,2013-08-08 08:00:00,
2013-08-08 03:10:00,68.2,63.2,29.98,ESE,112,0.0,4.0,84,0.00,,---,0.00,VWS V14.01,2013-08-08 08:10:00,
2013-08-08 03:20:00,68.0,63.3,29.98,ESE,112,0.0,2.0,85,0.00,,---,0.00,VWS V14.01,2013-08-08 08:20:00,
2013-08-08 03:30:00,67.8,63.1,29.98,East,90,0.0,3.0,85,0.00,,---,0.00,VWS V14.01,2013-08-08 08:30:00,
2013-08-08 03:40:00,67.5,63.2,29.97,ESE,112,0.0,2.0,86,0.00,,---,0.00,VWS V14.01,2013-08-08 08:40:00,
2013-08-08 03:50:00,67.4,63.1,29.97,ENE,68,0.0,3.0,86,0.00,,---,0.00,VWS V14.01,2013-08-08 08:50:00,
2013-08-08 04:00:00,67.2,62.9,29.96,ENE,68,0.0,4.0,86,0.00,,---,0.00,VWS V14.01,2013-08-08 09:00:00,
2013-08-08 04:10:00,67.1,62.8,29.96,East,90,1.0,4.0,86,0.00,,---,0.00,VWS V14.01,2013-08-08 09:10:00,
2013-08-08 04:20:00,66.9,62.6,29.95,East,90,0.0,4.0,86,0.00,,---,0.00,VWS V14.01,2013-08-08 09:20:00,
2013-08-08 04:30:00,66.8,62.5,29.96,NE,45,0.0,4.0,86,0.00,,---,0.00,VWS V14.01,2013-08-08 09:30:00,
2013-08-08 04:40:00,66.7,62.7,29.97,East,90,1.0,4.0,87,0.00,,---,0.00,VWS V14.01,2013-08-08 09:40:00,
2013-08-08 04:50:00,66.6,62.6,29.97,East,90,0.0,5.0,87,0.00,,---,0.00,VWS V14.01,2013-08-08 09:50:00,
2013-08-08 05:00:00,66.6,62.6,29.98,ESE,112,0.0,4.0,87,0.00,,---,0.00,VWS V14.01,2013-08-08 10:00:00,
2013-08-08 05:10:00,66.5,62.5,29.98,ESE,112,0.0,4.0,87,0.00,,---,0.00,VWS V14.01,2013-08-08 10:10:00,
2013-08-08 05:20:00,66.5,62.5,29.98,East,90,0.0,2.0,87,0.00,,---,0.00,VWS V14.01,2013-08-08 10:20:00,
2013-08-08 05:30:00,66.4,62.4,29.97,SE,135,0.0,2.0,87,0.00,,---,0.00,VWS V14.01,2013-08-08 10:30:00,
2013-08-08 05:40:00,66.3,62.3,29.97,SE,135,0.0,1.0,87,0.00,,---,0.00,VWS V14.01,2013-08-08 10:40:00,
2013-08-08 05:50:00,66.2,62.2,29.98,East,90,0.0,4.0,87,0.00,,---,0.00,VWS V14.01,2013-08-08 10:50:00,
2013-08-08 06:00:00,66.1,62.1,29.98,East,90,0.0,3.0,87,0.00,,---,0.00,VWS V14.01,2013-08-08 11:00:00,
2013-08-08 06:10:00,66.0,62.3,29.98,East,90,0.0,4.0,88,0.00,,---,0.00,VWS V14.01,2013-08-08 11:10:00,
2013-08-08 06:20:00,66.0,62.3,29.98,East,90,0.0,2.0,88,0.00,,---,0.00,VWS V14.01,2013-08-08 11:20:00,
2013-08-08 06:30:00,65.9,62.2,29.99,East,90,0.0,1.0,88,0.00,,---,0.00,VWS V14.01,2013-08-08 11:30:00,
2013-08-08 06:40:00,65.9,62.2,30.01,East,90,0.0,1.0,88,0.00,,---,0.00,VWS V14.01,2013-08-08 11:40:00,
2013-08-08 06:50:00,65.9,62.2,30.01,East,90,0.0,2.0,88,0.00,,---,0.00,VWS V14.01,2013-08-08 11:50:00,
2013-08-08 07:00:00,65.9,62.2,30.01,East,90,0.0,1.0,88,0.00,,---,0.00,VWS V14.01,2013-08-08 12:00:00,
2013-08-08 07:10:00,66.0,62.3,30.02,East,90,0.0,1.0,88,0.00,,---,0.00,VWS V14.01,2013-08-08 12:10:00,
2013-08-08 07:20:00,66.1,62.5,30.02,East,90,0.0,1.0,88,0.00,,---,0.00,VWS V14.01,2013-08-08 12:20:00,
2013-08-08 07:30:00,66.2,62.2,30.01,East,90,0.0,4.0,87,0.00,,---,0.00,VWS V14.01,2013-08-08 12:30:00,
2013-08-08 07:40:00,66.4,62.4,30.01,East,90,0.0,3.0,87,0.00,,---,0.00,VWS V14.01,2013-08-08 12:40:00,
2013-08-08 07:50:00,66.6,62.6,30.01,ESE,112,0.0,4.0,87,0.00,,---,0.00,VWS V14.01,2013-08-08 12:50:00,
2013-08-08 08:00:00,66.8,62.5,30.01,East,90,1.0,4.0,86,0.00,,---,0.00,VWS V14.01,2013-08-08 13:00:00,
2013-08-08 08:10:00,67.0,62.7,30.02,East,90,0.0,2.0,86,0.00,,---,0.00,VWS V14.01,2013-08-08 13:10:00,
2013-08-08 08:20:00,67.2,62.9,30.02,East,90,0.0,4.0,86,0.00,,---,0.00,VWS V14.01,2013-08-08 13:20:00,
2013-08-08 08:30:00,67.3,63.0,30.02,ENE,68,0.0,3.0,86,0.00,,---,0.00,VWS V14.01,2013-08-08 13:30:00,
2013-08-08 08:40:00,67.4,63.1,30.01,East,90,0.0,3.0,86,0.00,,---,0.00,VWS V14.01,2013-08-08 13:40:00,
2013-08-08 08:50:00,67.4,63.1,30.01,East,90,0.0,2.0,86,0.00,,---,0.00,VWS V14.01,2013-08-08 13:50:00,
2013-08-08 09:00:00,67.6,63.3,30.01,East,90,0.0,2.0,86,0.00,,---,0.00,VWS V14.01,2013-08-08 14:00:00,
2013-08-08 09:10:00,67.7,63.4,30.01,East,90,0.0,2.0,86,0.00,,---,0.00,VWS V14.01,2013-08-08 14:10:00,
2013-08-08 09:20:00,68.0,63.3,30.00,East,90,1.0,4.0,85,0.00,,---,0.00,VWS V14.01,2013-08-08 14:20:00,
2013-08-08 09:30:00,68.2,63.5,30.00,East,90,1.0,5.0,85,0.00,,---,0.00,VWS V14.01,2013-08-08 14:30:00,
2013-08-08 09:40:00,68.4,63.7,30.00,NE,45,0.0,2.0,85,0.00,,---,0.00,VWS V14.01,2013-08-08 14:40:00,
2013-08-08 09:50:00,68.6,63.9,30.00,NE,45,0.0,4.0,85,0.00,,---,0.00,VWS V14.01,2013-08-08 14:50:00,
2013-08-08 10:00:00,68.6,63.9,29.99,ESE,112,1.0,5.0,85,0.00,,---,0.00,VWS V14.01,2013-08-08 15:00:00,
2013-08-08 10:10:00,68.6,63.9,29.99,ENE,68,1.0,5.0,85,0.00,,---,0.00,VWS V14.01,2013-08-08 15:10:00,
2013-08-08 10:20:00,68.6,63.9,29.98,ESE,112,1.0,5.0,85,0.00,,---,0.00,VWS V14.01,2013-08-08 15:20:00,
2013-08-08 10:30:00,68.7,64.0,29.98,NE,45,1.0,5.0,85,0.00,,---,0.00,VWS V14.01,2013-08-08 15:30:00,
2013-08-08 10:40:00,68.9,64.2,29.98,NNE,22,1.0,4.0,85,0.00,,---,0.00,VWS V14.01,2013-08-08 15:40:00,
2013-08-08 10:50:00,69.2,64.5,29.98,East,90,0.0,4.0,85,0.00,,---,0.00,VWS V14.01,2013-08-08 15:50:00,
2013-08-08 11:00:00,69.4,64.0,29.98,NE,45,2.0,8.0,83,0.00,,---,0.00,VWS V14.01,2013-08-08 16:00:00,
2013-08-08 11:10:00,69.6,64.6,29.98,NE,45,1.0,6.0,84,0.00,,---,0.00,VWS V14.01,2013-08-08 16:10:00,
2013-08-08 11:20:00,69.8,64.4,29.99,East,90,1.0,6.0,83,0.00,,---,0.00,VWS V14.01,2013-08-08 16:20:00,
2013-08-08 11:30:00,70.0,64.6,30.00,East,90,1.0,4.0,83,0.00,,---,0.00,VWS V14.01,2013-08-08 16:30:00,
2013-08-08 11:40:00,70.2,64.4,30.00,NE,45,0.0,4.0,82,0.00,,---,0.00,VWS V14.01,2013-08-08 16:40:00,
2013-08-08 11:50:00,70.5,64.4,30.01,NE,45,0.0,3.0,81,0.00,,---,0.00,VWS V14.01,2013-08-08 16:50:00,
2013-08-08 12:00:00,70.6,64.5,30.01,ENE,68,0.0,5.0,81,0.00,,---,0.00,VWS V14.01,2013-08-08 17:00:00,
2013-08-08 12:10:00,70.6,64.5,30.00,NE,45,1.0,4.0,81,0.00,,---,0.00,VWS V14.01,2013-08-08 17:10:00,
2013-08-08 12:20:00,70.7,64.6,30.01,ENE,68,0.0,2.0,81,0.00,,---,0.00,VWS V14.01,2013-08-08 17:20:00,
2013-08-08 12:30:00,70.9,64.8,30.01,NE,45,1.0,4.0,81,0.00,,---,0.00,VWS V14.01,2013-08-08 17:30:00,
2013-08-08 12:40:00,71.4,64.9,30.00,ENE,68,0.0,4.0,80,0.00,,---,0.00,VWS V14.01,2013-08-08 17:40:00,
2013-08-08 12:50:00,71.9,65.0,30.01,East,90,0.0,2.0,79,0.00,,---,0.00,VWS V14.01,2013-08-08 17:50:00,
2013-08-08 13:00:00,72.5,64.9,30.01,SE,135,1.0,4.0,77,0.00,,---,0.00,VWS V14.01,2013-08-08 18:00:00,
2013-08-08 13:10:00,73.1,65.5,30.02,East,90,0.0,4.0,77,0.00,,---,0.00,VWS V14.01,2013-08-08 18:10:00,
2013-08-08 13:20:00,73.7,65.3,30.02,East,90,0.0,2.0,75,0.00,,---,0.00,VWS V14.01,2013-08-08 18:20:00,
2013-08-08 13:30:00,74.0,65.2,30.01,East,90,0.0,4.0,74,0.00,,---,0.00,VWS V14.01,2013-08-08 18:30:00,
2013-08-08 13:40:00,74.6,65.4,30.01,East,90,1.0,4.0,73,0.00,,---,0.00,VWS V14.01,2013-08-08 18:40:00,
2013-08-08 13:50:00,75.3,65.7,30.01,ESE,112,1.0,4.0,72,0.00,,---,0.00,VWS V14.01,2013-08-08 18:50:00,
2013-08-08 14:00:00,74.9,65.3,30.01,NE,45,1.0,5.0,72,0.00,,---,0.00,VWS V14.01,2013-08-08 19:00:00,
2013-08-08 14:10:00,75.2,66.0,30.01,NE,45,0.0,4.0,73,0.00,,---,0.00,VWS V14.01,2013-08-08 19:10:00,
2013-08-08 14:38:00,76.6,65.3,30.01,East,94,1.0,1.0,68,0.00,,---,0.00,VWS V14.01,2013-08-08 19:38:00,
2013-08-08 14:43:00,76.7,65.8,30.01,East,94,0.0,2.0,69,0.00,,---,0.00,VWS V14.01,2013-08-08 19:43:00,
2013-08-08 14:48:00,76.7,65.3,30.01,East,99,0.0,4.0,68,0.00,,---,0.00,VWS V14.01,2013-08-08 19:48:00,
2013-08-08 14:50:00,76.7,65.3,30.01,NE,40,0.0,3.0,68,0.00,,---,0.00,VWS V14.01,2013-08-08 19:50:00,
2013-08-08 14:53:00,76.4,65.5,30.01,ENE,59,0.0,4.0,69,0.00,,---,0.00,VWS V14.01,2013-08-08 19:53:00,
2013-08-08 14:59:00,76.3,65.4,30.01,ESE,123,0.0,2.0,69,0.00,,---,0.00,VWS V14.01,2013-08-08 19:59:00,
2013-08-08 15:00:00,76.3,65.4,30.01,East,92,1.0,4.0,69,0.00,,---,0.00,VWS V14.01,2013-08-08 20:00:00,
2013-08-08 15:04:00,76.3,65.8,30.01,East,86,0.0,4.0,70,0.00,,---,0.00,VWS V14.01,2013-08-08 20:04:00,
2013-08-08 15:09:00,76.3,65.8,30.01,East,86,0.0,1.0,70,0.00,,---,0.00,VWS V14.01,2013-08-08 20:09:00,
2013-08-08 15:10:00,76.3,65.8,30.01,East,86,0.0,4.0,70,0.00,,---,0.00,VWS V14.01,2013-08-08 20:10:00,
2013-08-08 15:17:00,76.3,66.2,30.01,NNE,31,0.0,0.0,71,0.00,,---,0.00,VWS V14.01,2013-08-08 20:17:00,
2013-08-08 15:20:00,76.3,66.2,30.01,NNE,31,0.0,0.0,71,0.00,,---,0.00,VWS V14.01,2013-08-08 20:20:00,
2013-08-08 15:23:00,76.2,66.1,30.01,East,93,0.0,0.0,71,0.00,,---,0.00,VWS V14.01,2013-08-08 20:23:00,
2013-08-08 15:29:00,75.8,65.7,30.01,ENE,67,1.0,1.0,71,0.00,,---,0.00,VWS V14.01,2013-08-08 20:29:00,
2013-08-08 15:34:00,75.7,65.6,30.01,ENE,67,1.0,1.0,71,0.00,,---,0.00,VWS V14.01,2013-08-08 20:34:00,
2013-08-08 15:39:00,75.7,65.2,30.01,ENE,67,0.0,3.0,70,0.00,,---,0.00,VWS V14.01,2013-08-08 20:39:00,
2013-08-08 15:40:00,75.7,66.0,30.01,ENE,69,0.0,1.0,72,0.00,,---,0.00,VWS V14.01,2013-08-08 20:40:00,
2013-08-08 15:44:00,75.7,65.6,30.01,ENE,59,0.0,3.0,71,0.00,,---,0.00,VWS V14.01,2013-08-08 20:44:00,
2013-08-08 15:49:00,75.7,65.2,30.02,NE,53,0.0,3.0,70,0.00,,---,0.00,VWS V14.01,2013-08-08 20:49:00,
2013-08-08 15:50:00,75.7,65.6,30.01,NE,54,0.0,3.0,71,0.00,,---,0.00,VWS V14.01,2013-08-08 20:50:00,
2013-08-08 15:54:00,75.6,65.5,30.02,SE,146,0.0,3.0,71,0.00,,---,0.00,VWS V14.01,2013-08-08 20:54:00,
2013-08-08 15:59:00,75.8,65.7,30.01,SE,146,0.0,1.0,71,0.00,,---,0.00,VWS V14.01,2013-08-08 20:59:00,
2013-08-08 16:00:00,75.8,65.7,30.02,SE,146,0.0,3.0,71,0.00,,---,0.00,VWS V14.01,2013-08-08 21:00:00,
2013-08-08 16:04:00,76.1,66.0,30.01,SE,146,0.0,1.0,71,0.00,,---,0.00,VWS V14.01,2013-08-08 21:04:00,
2013-08-08 16:09:00,76.2,65.7,30.01,SE,146,0.0,1.0,70,0.00,,---,0.00,VWS V14.01,2013-08-08 21:09:00,
2013-08-08 16:14:00,76.4,65.1,30.01,SE,130,0.0,2.0,68,0.00,,---,0.00,VWS V14.01,2013-08-08 21:14:00,
2013-08-08 16:19:00,76.5,64.7,30.01,SE,130,0.0,4.0,67,0.00,,---,0.00,VWS V14.01,2013-08-08 21:19:00,
2013-08-08 16:20:00,76.5,65.6,30.01,SE,130,0.0,2.0,69,0.00,,---,0.00,VWS V14.01,2013-08-08 21:20:00,
2013-08-08 16:24:00,76.4,65.5,30.01,SE,130,0.0,4.0,69,0.00,,---,0.00,VWS V14.01,2013-08-08 21:24:00,
2013-08-08 16:29:00,76.5,64.7,30.01,SE,130,0.0,1.0,67,0.00,,---,0.00,VWS V14.01,2013-08-08 21:29:00,
2013-08-08 16:30:00,76.4,65.1,30.01,SE,130,1.0,4.0,68,0.00,,---,0.00,VWS V14.01,2013-08-08 21:30:00,
2013-08-08 16:34:00,76.5,64.7,30.01,SE,130,2.0,4.0,67,0.00,,---,0.00,VWS V14.01,2013-08-08 21:34:00,
2013-08-08 16:39:00,76.6,64.8,30.01,SE,130,0.0,1.0,67,0.00,,---,0.00,VWS V14.01,2013-08-08 21:39:00,
2013-08-08 16:45:00,77.0,65.6,30.02,SE,130,0.0,1.0,68,0.00,,---,0.00,VWS V14.01,2013-08-08 21:45:00,
2013-08-08 16:50:00,77.4,65.6,30.02,SSE,160,2.0,2.0,67,0.00,,---,0.00,VWS V14.01,2013-08-08 21:50:00,
2013-08-08 16:55:00,77.8,66.0,30.02,SSE,159,0.0,2.0,67,0.00,,---,0.00,VWS V14.01,2013-08-08 21:55:00,
2013-08-08 17:00:00,77.8,66.0,30.02,ENE,58,0.0,1.0,67,0.00,,---,0.00,VWS V14.01,2013-08-08 22:00:00,
2013-08-08 17:05:00,77.6,64.5,30.02,ENE,62,2.0,4.0,64,0.00,,---,0.00,VWS V14.01,2013-08-08 22:05:00,
2013-08-08 17:10:00,77.4,64.7,30.02,ENE,62,0.0,1.0,65,0.00,,---,0.00,VWS V14.01,2013-08-08 22:10:00,
2013-08-08 17:15:00,77.5,65.3,30.02,ENE,62,0.0,1.0,66,0.00,,---,0.00,VWS V14.01,2013-08-08 22:15:00,
2013-08-08 17:20:00,77.6,65.3,30.02,ENE,62,1.0,1.0,66,0.00,,---,0.00,VWS V14.01,2013-08-08 22:20:00,
2013-08-08 17:25:00,77.8,65.5,30.02,ENE,62,0.0,1.0,66,0.00,,---,0.00,VWS V14.01,2013-08-08 22:25:00,
2013-08-08 17:30:00,78.0,65.3,30.03,ENE,62,0.0,1.0,65,0.00,,---,0.00,VWS V14.01,2013-08-08 22:30:00,
2013-08-08 17:35:00,78.1,65.4,30.02,ENE,62,0.0,1.0,65,0.00,,---,0.00,VWS V14.01,2013-08-08 22:35:00,
2013-08-08 17:40:00,78.1,65.4,30.02,East,84,1.0,2.0,65,0.00,,---,0.00,VWS V14.01,2013-08-08 22:40:00,
2013-08-08 17:45:00,77.8,65.1,30.02,East,84,0.0,2.0,65,0.00,,---,0.00,VWS V14.01,2013-08-08 22:45:00,
2013-08-08 17:50:00,77.5,64.4,30.02,NNE,22,0.0,5.0,64,0.00,,---,0.00,VWS V14.01,2013-08-08 22:50:00,
2013-08-08 17:55:00,77.4,63.8,30.02,East,90,0.0,5.0,63,0.00,,---,0.00,VWS V14.01,2013-08-08 22:55:00,
2013-08-08 18:00:00,77.2,64.1,30.02,ENE,74,0.0,3.0,64,0.00,,---,0.00,VWS V14.01,2013-08-08 23:00:00,
2013-08-08 18:05:00,77.0,64.3,30.02,ENE,74,0.0,3.0,65,0.00,,---,0.00,VWS V14.01,2013-08-08 23:05:00,
2013-08-08 18:11:00,76.9,64.7,30.02,ENE,74,0.0,1.0,66,0.00,,---,0.00,VWS V14.01,2013-08-08 23:11:00,
2013-08-08 18:16:00,76.9,64.7,30.02,ENE,72,0.0,2.0,66,0.00,,---,0.00,VWS V14.01,2013-08-08 23:16:00,
2013-08-08 18:20:00,76.8,65.0,30.02,East,88,0.0,2.0,67,0.00,,---,0.00,VWS V14.01,2013-08-08 23:20:00,
2013-08-08 18:21:00,76.8,65.0,30.02,ENE,72,0.0,4.0,67,0.00,,---,0.00,VWS V14.01,2013-08-08 23:21:00,
2013-08-08 18:26:00,76.7,65.3,30.02,ENE,72,2.0,4.0,68,0.00,,---,0.00,VWS V14.01,2013-08-08 23:26:00,
2013-08-08 18:31:00,76.4,65.1,30.02,ENE,72,2.0,2.0,68,0.00,,---,0.00,VWS V14.01,2013-08-08 23:31:00,
2013-08-08 18:36:00,76.2,65.7,30.02,ENE,72,0.0,3.0,70,0.00,,---,0.00,VWS V14.01,2013-08-08 23:36:00,
2013-08-08 18:41:00,76.1,65.6,30.02,ENE,72,0.0,2.0,70,0.00,,---,0.00,VWS V14.01,2013-08-08 23:41:00,
2013-08-08 18:46:00,76.2,65.7,30.02,ENE,72,1.0,2.0,70,0.00,,---,0.00,VWS V14.01,2013-08-08 23:46:00,
2013-08-08 18:50:00,76.2,65.7,30.01,ENE,72,0.0,2.0,70,0.00,,---,0.00,VWS V14.01,2013-08-08 23:50:00,
2013-08-08 18:52:00,76.3,66.2,30.02,ENE,72,0.0,2.0,71,0.00,,---,0.00,VWS V14.01,2013-08-08 23:52:00,
2013-08-08 18:56:00,76.2,66.1,30.01,ENE,71,0.0,2.0,71,0.00,,---,0.00,VWS V14.01,2013-08-08 23:56:00,
2013-08-08 19:00:00,76.2,66.1,30.01,ENE,71,0.0,2.0,71,0.00,,---,0.00,VWS V14.01,2013-08-09 00:00:00,
2013-08-08 19:01:00,76.2,66.1,30.01,ENE,71,0.0,3.0,71,0.00,,---,0.00,VWS V14.01,2013-08-09 00:01:00,
2013-08-08 19:07:00,76.2,66.1,30.01,ENE,77,0.0,3.0,71,0.00,,---,0.00,VWS V14.01,2013-08-09 00:07:00,
2013-08-08 19:10:00,76.2,66.1,30.01,ENE,77,0.0,3.0,71,0.00,,---,0.00,VWS V14.01,2013-08-09 00:10:00,
2013-08-08 19:12:00,76.2,66.1,30.01,ENE,76,1.0,3.0,71,0.00,,---,0.00,VWS V14.01,2013-08-09 00:12:00,
2013-08-08 19:17:00,76.2,66.1,30.01,ENE,76,0.0,3.0,71,0.00,,---,0.00,VWS V14.01,2013-08-09 00:17:00,
2013-08-08 19:22:00,76.2,66.1,30.01,ENE,76,0.0,0.0,71,0.00,,---,0.00,VWS V14.01,2013-08-09 00:22:00,
2013-08-08 19:27:00,76.1,66.0,30.02,ENE,76,0.0,0.0,71,0.00,,---,0.00,VWS V14.01,2013-08-09 00:27:00,
2013-08-08 19:30:00,76.1,66.0,30.02,ENE,76,0.0,1.0,71,0.00,,---,0.00,VWS V14.01,2013-08-09 00:30:00,
2013-08-08 19:32:00,76.1,66.0,30.02,ENE,76,0.0,0.0,71,0.00,,---,0.00,VWS V14.01,2013-08-09 00:32:00,
2013-08-08 19:37:00,76.1,66.0,30.02,ENE,76,0.0,1.0,71,0.00,,---,0.00,VWS V14.01,2013-08-09 00:37:00,
2013-08-08 19:42:00,76.1,66.0,30.02,ENE,76,0.0,0.0,71,0.00,,---,0.00,VWS V14.01,2013-08-09 00:42:00,
2013-08-08 19:47:00,76.0,65.9,30.02,ENE,76,0.0,0.0,71,0.00,,---,0.00,VWS V14.01,2013-08-09 00:47:00,
2013-08-08 19:50:00,76.0,65.9,30.02,ENE,76,0.0,1.0,71,0.00,,---,0.00,VWS V14.01,2013-08-09 00:50:00,
2013-08-08 19:52:00,75.9,65.8,30.02,ENE,76,0.0,1.0,71,0.00,,---,0.00,VWS V14.01,2013-08-09 00:52:00,
2013-08-08 19:57:00,75.9,66.2,30.01,ENE,76,0.0,0.0,72,0.00,,---,0.00,VWS V14.01,2013-08-09 00:57:00,
2013-08-08 20:00:00,75.9,66.2,30.01,ENE,76,0.0,1.0,72,0.00,,---,0.00,VWS V14.01,2013-08-09 01:00:00,
2013-08-08 20:02:00,75.8,65.7,30.01,ENE,76,0.0,0.0,71,0.00,,---,0.00,VWS V14.01,2013-08-09 01:02:00,
2013-08-08 20:07:00,75.8,66.1,30.01,ENE,76,0.0,0.0,72,0.00,,---,0.00,VWS V14.01,2013-08-09 01:07:00,
2013-08-08 20:12:00,75.7,66.0,30.01,ENE,76,0.0,0.0,72,0.00,,---,0.00,VWS V14.01,2013-08-09 01:12:00,
2013-08-08 20:18:00,75.7,66.0,30.02,ENE,76,0.0,0.0,72,0.00,,---,0.00,VWS V14.01,2013-08-09 01:18:00,
2013-08-08 20:20:00,75.7,66.0,30.02,ENE,76,0.0,0.0,72,0.00,,---,0.00,VWS V14.01,2013-08-09 01:20:00,
2013-08-08 20:23:00,75.6,66.3,30.02,ENE,76,0.0,0.0,73,0.00,,---,0.00,VWS V14.01,2013-08-09 01:23:00,
2013-08-08 20:28:00,75.5,66.2,30.01,ENE,76,0.0,0.0,73,0.00,,---,0.00,VWS V14.01,2013-08-09 01:28:00,
2013-08-08 20:30:00,75.5,66.2,30.01,ENE,76,0.0,0.0,73,0.00,,---,0.00,VWS V14.01,2013-08-09 01:30:00,
2013-08-08 20:33:00,75.3,66.4,30.02,ENE,76,0.0,0.0,74,0.00,,---,0.00,VWS V14.01,2013-08-09 01:33:00,
2013-08-08 20:38:00,75.2,66.3,30.02,ENE,76,0.0,0.0,74,0.00,,---,0.00,VWS V14.01,2013-08-09 01:38:00,
2013-08-08 20:40:00,75.2,66.3,30.02,ENE,76,0.0,0.0,74,0.00,,---,0.00,VWS V14.01,2013-08-09 01:40:00,
2013-08-08 20:43:00,75.0,66.6,30.02,ENE,76,0.0,0.0,75,0.00,,---,0.00,VWS V14.01,2013-08-09 01:43:00,
2013-08-08 20:48:00,74.9,66.4,30.02,ENE,76,0.0,0.0,75,0.00,,---,0.00,VWS V14.01,2013-08-09 01:48:00,
2013-08-08 20:50:00,74.9,66.4,30.02,ENE,76,0.0,0.0,75,0.00,,---,0.00,VWS V14.01,2013-08-09 01:50:00,
2013-08-08 20:53:00,74.7,66.3,30.02,ENE,76,0.0,0.0,75,0.00,,---,0.00,VWS V14.01,2013-08-09 01:53:00,
2013-08-08 20:58:00,74.6,66.5,30.02,ENE,76,0.0,0.0,76,0.00,,---,0.00,VWS V14.01,2013-08-09 01:58:00,
2013-08-08 21:03:00,74.4,66.3,30.02,ENE,76,0.0,0.0,76,0.00,,---,0.00,VWS V14.01,2013-08-09 02:03:00,
2013-08-08 21:08:00,74.2,66.5,30.02,ENE,76,0.0,0.0,77,0.00,,---,0.00,VWS V14.01,2013-08-09 02:08:00,
2013-08-08 21:14:00,74.1,66.4,30.02,ENE,76,0.0,0.0,77,0.00,,---,0.00,VWS V14.01,2013-08-09 02:14:00,
2013-08-08 21:19:00,73.9,66.6,30.02,ENE,76,0.0,0.0,78,0.00,,---,0.00,VWS V14.01,2013-08-09 02:19:00,
2013-08-08 21:20:00,74.0,66.3,30.02,ENE,76,0.0,0.0,77,0.00,,---,0.00,VWS V14.01,2013-08-09 02:20:00,
2013-08-08 21:24:00,73.8,66.5,30.02,ENE,76,0.0,0.0,78,0.00,,---,0.00,VWS V14.01,2013-08-09 02:24:00,
2013-08-08 21:29:00,73.7,66.8,30.02,ENE,76,0.0,0.0,79,0.00,,---,0.00,VWS V14.01,2013-08-09 02:29:00,
2013-08-08 21:34:00,73.5,66.6,30.02,ENE,76,0.0,0.0,79,0.00,,---,0.00,VWS V14.01,2013-08-09 02:34:00,
2013-08-08 21:39:00,73.4,66.5,30.02,ENE,76,0.0,0.0,79,0.00,,---,0.00,VWS V14.01,2013-08-09 02:39:00,
2013-08-08 21:44:00,73.3,66.4,30.03,ENE,76,0.0,0.0,79,0.00,,---,0.00,VWS V14.01,2013-08-09 02:44:00,
2013-08-08 21:49:00,73.1,66.6,30.03,ENE,76,0.0,0.0,80,0.00,,---,0.00,VWS V14.01,2013-08-09 02:49:00,
2013-08-08 21:50:00,73.2,66.7,30.03,ENE,76,0.0,0.0,80,0.00,,---,0.00,VWS V14.01,2013-08-09 02:50:00,
2013-08-08 21:54:00,73.0,66.5,30.03,ENE,76,0.0,0.0,80,0.00,,---,0.00,VWS V14.01,2013-08-09 02:54:00,
2013-08-08 21:59:00,72.9,66.4,30.03,ENE,76,0.0,0.0,80,0.00,,---,0.00,VWS V14.01,2013-08-09 02:59:00,
2013-08-08 22:04:00,72.8,66.6,30.03,ENE,76,0.0,0.0,81,0.00,,---,0.00,VWS V14.01,2013-08-09 03:04:00,
2013-08-08 22:09:00,72.7,66.5,30.03,ENE,76,0.0,0.0,81,0.00,,---,0.00,VWS V14.01,2013-08-09 03:09:00,
2013-08-08 22:10:00,72.7,66.5,30.03,ENE,76,0.0,0.0,81,0.00,,---,0.00,VWS V14.01,2013-08-09 03:10:00,
2013-08-08 22:14:00,72.6,66.4,30.04,ENE,76,0.0,0.0,81,0.00,,---,0.00,VWS V14.01,2013-08-09 03:14:00,
2013-08-08 22:19:00,72.5,66.7,30.04,ENE,76,0.0,0.0,82,0.00,,---,0.00,VWS V14.01,2013-08-09 03:19:00,
2013-08-08 22:20:00,72.5,66.7,30.04,ENE,76,0.0,0.0,82,0.00,,---,0.00,VWS V14.01,2013-08-09 03:20:00,
2013-08-08 22:24:00,72.4,66.6,30.04,ENE,76,0.0,0.0,82,0.00,,---,0.00,VWS V14.01,2013-08-09 03:24:00,
2013-08-08 22:30:00,72.3,66.5,30.04,ENE,76,0.0,0.0,82,0.00,,---,0.00,VWS V14.01,2013-08-09 03:30:00,
2013-08-08 22:35:00,72.2,66.8,30.04,ENE,76,0.0,0.0,83,0.00,,---,0.00,VWS V14.01,2013-08-09 03:35:00,
2013-08-08 22:40:00,72.1,66.7,30.04,ENE,76,0.0,0.0,83,0.00,,---,0.00,VWS V14.01,2013-08-09 03:40:00,
2013-08-08 22:45:00,72.1,66.7,30.04,ENE,76,0.0,0.0,83,0.00,,---,0.00,VWS V14.01,2013-08-09 03:45:00,
2013-08-08 22:50:00,72.0,66.6,30.04,ENE,76,0.0,0.0,83,0.00,,---,0.00,VWS V14.01,2013-08-09 03:50:00,
2013-08-08 22:55:00,71.9,66.5,30.04,ENE,76,0.0,0.0,83,0.00,,---,0.00,VWS V14.01,2013-08-09 03:55:00,
2013-08-08 23:00:00,71.9,66.5,30.05,ENE,76,0.0,0.0,83,0.00,,---,0.00,VWS V14.01,2013-08-09 04:00:00,
2013-08-08 23:01:00,71.9,66.5,30.05,ENE,76,0.0,0.0,83,0.00,,---,0.00,VWS V14.01,2013-08-09 04:01:00,
2013-08-08 23:06:00,71.8,66.4,30.05,ENE,76,0.0,0.0,83,0.00,,---,0.00,VWS V14.01,2013-08-09 04:06:00,
2013-08-08 23:10:00,71.8,66.4,30.05,ENE,76,0.0,0.0,83,0.00,,---,0.00,VWS V14.01,2013-08-09 04:10:00,
2013-08-08 23:11:00,71.7,66.6,30.05,ENE,76,0.0,0.0,84,0.00,,---,0.00,VWS V14.01,2013-08-09 04:11:00,
2013-08-08 23:16:00,71.7,66.6,30.05,ENE,76,0.0,0.0,84,0.00,,---,0.00,VWS V14.01,2013-08-09 04:16:00,
2013-08-08 23:20:00,71.7,66.6,30.05,ENE,76,0.0,0.0,84,0.00,,---,0.00,VWS V14.01,2013-08-09 04:20:00,
2013-08-08 23:21:00,71.6,66.5,30.05,ENE,76,0.0,0.0,84,0.00,,---,0.00,VWS V14.01,2013-08-09 04:21:00,
2013-08-08 23:26:00,71.5,66.4,30.05,ENE,76,0.0,0.0,84,0.00,,---,0.00,VWS V14.01,2013-08-09 04:26:00,
2013-08-08 23:30:00,71.5,66.4,30.05,ENE,76,0.0,0.0,84,0.00,,---,0.00,VWS V14.01,2013-08-09 04:30:00,
2013-08-08 23:31:00,71.5,66.8,30.04,ENE,76,0.0,0.0,85,0.00,,---,0.00,VWS V14.01,2013-08-09 04:31:00,
2013-08-08 23:36:00,71.5,66.8,30.04,ENE,76,0.0,0.0,85,0.00,,---,0.00,VWS V14.01,2013-08-09 04:36:00,
2013-08-08 23:40:00,71.5,66.8,30.04,ENE,76,0.0,0.0,85,0.00,,---,0.00,VWS V14.01,2013-08-09 04:40:00,
2013-08-08 23:41:00,71.4,66.7,30.04,ENE,76,0.0,0.0,85,0.00,,---,0.00,VWS V14.01,2013-08-09 04:41:00,
2013-08-08 23:46:00,71.3,66.6,30.04,ENE,76,0.0,0.0,85,0.00,,---,0.00,VWS V14.01,2013-08-09 04:46:00,
2013-08-08 23:50:00,71.3,66.6,30.04,ENE,76,0.0,0.0,85,0.00,,---,0.00,VWS V14.01,2013-08-09 04:50:00,
2013-08-08 23:51:00,71.2,66.5,30.05,ENE,76,0.0,0.0,85,0.00,,---,0.00,VWS V14.01,2013-08-09 04:51:00,
2013-08-08 23:56:00,71.2,66.8,30.04,ENE,76,0.0,1.0,86,0.00,,---,0.00,VWS V14.01,2013-08-09 04:56:00,